Hourly Data Report for September 13, 2017

All times are specified in Local Standard Time (LST). Add 1 hour to adjust for Daylight Saving Time where and when it is observed.

CLYDE RIVER A
NUNAVUT

70°29'09.000" N
68°31'01.000" W
26.50 m
2400804
71090
YCY

Related Data

No related data is available for this station

Download Data

Hourly Data (September 2017)
Hourly Data Report for September 13, 2017
Temp Definition
°C
Dew Point Temp Definition
°C
Rel Hum Definition
%
Wind Dir Definition
10's deg

Wind Spd Definition
km/h
Visibility Definition
km
Stn Press Definition
kPa
Hmdx Definition


Wind Chill Definition


Weather Definition


TIME
00:00 Legend Double Dagger -0.7 -1.6 94 32 13 16.1 101.03   -5 LegendNANA
01:00 Legend Double Dagger -1.7 -2.3 95 34 8 11.3 101.03   -5 Snow
02:00 Legend Double Dagger -0.6 -1.2 96 36 15 2.8 101.06   -5 Snow
03:00 Legend Double Dagger -0.9 -1.5 96 35 11 4.8 101.11   -5 Snow
04:00 Legend Double Dagger -2.3 -3.1 94 35 8 16.1 101.15   -5 LegendNANA
05:00 Legend Double Dagger -1.1 -1.8 95 36 9 4.8 101.20   -4 Snow
06:00 Legend Double Dagger -2.0 -3.0 93 34 13 16.1 101.24   -6 LegendNANA
07:00 Legend Double Dagger -0.9 -2.0 92 34 9 16.1 101.28   -4 LegendNANA
08:00 Legend Double Dagger -0.1 -1.5 90 34 13 9.7 101.30   -4 Snow
09:00 Legend Double Dagger 0.0 -1.1 92 34 17 16.1 101.30   -5 LegendNANA
10:00 Legend Double Dagger 0.2 -1.1 91 34 18 16.1 101.30     LegendNANA
11:00 Legend Double Dagger 0.2 -1.1 91 34 18 4.0 101.31     Snow
12:00 Legend Double Dagger 0.7 -0.7 91 34 24 16.1 101.30     Rain
13:00 Legend Double Dagger 0.9 -0.6 90 2 22 16.1 101.35     LegendNANA
14:00 Legend Double Dagger 0.9 -0.9 88 2 24 16.1 101.38     LegendNANA
15:00 Legend Double Dagger 1.1 -0.5 89 1 21 16.1 101.39     LegendNANA
16:00 Legend Double Dagger 0.9 -0.1 93 36 24 16.1 101.39     Rain
17:00 Legend Double Dagger 0.5 -0.1 96 1 18 16.1 101.41     LegendNANA
18:00 Legend Double Dagger 0.8 -0.1 94 36 18 16.1 101.42     LegendNANA
19:00 Legend Double Dagger 0.9 0.1 95 2 21 16.1 101.44     Rain
20:00 Legend Double Dagger 1.0 0.4 96 3 21 16.1 101.45     LegendNANA
21:00 Legend Double Dagger 1.1 0.2 94 4 17 16.1 101.45     LegendNANA
22:00 Legend Double Dagger 1.2 0.2 93 4 21 16.1 101.43     LegendNANA
23:00 Legend Double Dagger 1.2 0.0 92 4 18 16.1 101.43     LegendNANA

Notes on Data Quality.

Legend

  • E = Estimated
  • M = Missing
  • NA = Not Available
  • ‡ = Partner data that is not subject to review by the National Climate Archives
Date modified: